Location: Palomar Mountain Lodge
(33.3110°N, 116.8495°W)
Time: 19:12:32
(UTC-07:00)

Cosmos 2154 Rocket - Pass Details

Date: 19 May 2017
Orbit: 965 x 997 km, 82.9° (Epoch: 19 August)

Event Time Altitude Azimuth Distance (km) Brightness Sun altitude
Rises 22:36:11 0° 352° (N) 3,713 8.0 -28.6°
Reaches altitude 10° 22:38:43 10° 351° (N) 2,763 7.1 -28.9°
Maximum altitude 22:45:03 76° 266° (W) 1,025 4.0 -29.6°
Enters shadow 22:45:29 73° 228° (SW) 1,039 4.0 -29.6°
